This demonstration page uses our WeatherBlox Daily Observations layout. Learn more.

38.88101, -77.10428

Hourly Observations for April 10, 2020

Temp ( °F °C ) Dew Point ( °F °C ) Humidity (%) Winds ( mph kmh ) Pressure ( in mb ) Visibility ( mi km ) Precip ( " mm )
12:52 am 00:52 Mostly Clear 48 8.9 24 -4.4 39 39 WNW 14 22 29.59 1002 10 16.0934 0 0
1:52 am 01:52 Mostly Clear 48 8.9 20 -6.7 33 33 WNW 15 24 29.58 1002 10 16.0934 0 0
2:52 am 02:52 Mostly Clear 47 8.3 20 -6.7 34 34 WNW 21 33 29.57 1002 10 16.0934 0 0
3:52 am 03:52 Clear 46 7.8 20 -6.7 35 35 WNW 14 22 29.57 1001 10 16.0934 0 0
4:52 am 04:52 Clear 45 7.2 21 -6.1 39 39 W 17 28 29.59 1002 10 16.0934 0 0
5:52 am 05:52 Clear 44 6.7 20 -6.7 38 38 NW 17 28 29.6 1002 10 16.0934 0 0
6:52 am 06:52 Mostly Sunny 43 6.1 18 -7.8 37 37 W 23 37 29.61 1003 10 16.0934 0 0
7:52 am 07:52 Mostly Sunny 44 6.7 18 -7.8 35 35 W 21 33 29.64 1004 10 16.0934 0 0
8:52 am 08:52 Mostly Sunny 45 7.2 20 -6.7 37 37 WNW 18 30 29.65 1004 10 16.0934 0 0
9:52 am 09:52 Partly Cloudy 46 7.8 20 -6.7 35 35 WNW 20 31 29.66 1004 10 16.0934 0 0
10:52 am 10:52 Mostly Cloudy 48 8.9 21 -6.1 34 34 W 18 30 29.68 1005 10 16.0934 0 0
11:52 am 11:52 Mostly Cloudy 49 9.4 22 -5.6 35 35 WNW 21 33 29.69 1005 10 16.0934 0.001 0.001
12:52 pm 12:52 Mostly Cloudy 50 10 23 -5 35 35 WNW 29 46 29.7 1006 10 16.0934 0 0
1:52 pm 13:52 Mostly Cloudy 49 9.4 22 -5.6 35 35 WNW 24 39 29.71 1006 10 16.0934 0 0
2:52 pm 14:52 Mostly Cloudy 51 10.6 23 -5 33 33 WNW 24 39 29.71 1006 10 16.0934 0 0
3:52 pm 15:52 Mostly Cloudy 53 11.7 25 -3.9 34 34 W 17 28 29.72 1007 10 16.0934 0 0
4:52 pm 16:52 Mostly Cloudy 50 10 23 -5 35 35 NW 18 30 29.76 1008 10 16.0934 0 0
5:52 pm 17:52 Mostly Cloudy 51 10.6 22 -5.6 32 32 WNW 26 43 29.79 1009 10 16.0934 0 0
6:52 pm 18:52 Mostly Cloudy 49 9.4 22 -5.6 35 35 NW 21 33 29.83 1010 10 16.0934 0 0
7:52 pm 19:52 Partly Cloudy 47 8.3 22 -5.6 37 37 NW 13 20 29.85 1011 10 16.0934 0 0
8:52 pm 20:52 Mostly Clear 47 8.3 22 -5.6 37 37 NW 10 17 29.88 1012 10 16.0934 0 0
9:52 pm 21:52 Clear 45 7.2 22 -5.6 40 40 NW 8 13 29.9 1013 10 16.0934 0 0
10:52 pm 22:52 Clear 45 7.2 22 -5.6 40 40 WNW 6 9 29.91 1013 10 16.0934 0 0
11:52 pm 23:52 Clear 44 6.7 22 -5.6 41 41 NW 6 9 29.92 1013 10 16.0934 0 0

Powered by AerisWeather